GFSGL_850_spd_336.txt.gz
Wind_Speed
11 9 8 7 6 7 7 6 5 5 5 5 5 3 2 1 2 7 9 7 13 13 12 12 19 17 16 19 12 17 17 31 42 34 34 30 27 24 21 18 14 12 10
12 11 9 9 7 7 7 7 7 6 6 5 5 4 4 2 4 5 9 9 8 9 9 10 8 13 18 20 18 15 24 30 35 38 33 30 27 23 21 18 15 12 11
15 14 12 11 9 7 8 8 8 7 7 6 6 6 5 5 6 8 8 10 11 11 13 11 10 14 18 20 19 20 24 24 26 28 33 29 26 21 19 16 13 10 9
17 16 15 13 11 9 9 10 10 9 8 7 8 8 7 5 8 8 8 9 10 12 12 15 14 18 20 20 17 14 14 19 24 31 31 29 25 23 18 16 15 12 9
18 18 16 14 14 11 10 10 11 11 10 9 10 10 9 7 8 9 9 8 11 11 11 16 19 19 20 18 17 13 14 18 24 31 31 30 26 24 21 19 15 15 11
18 17 17 17 16 14 12 11 12 12 12 11 10 12 12 10 10 8 10 10 9 12 11 15 19 21 21 21 15 9 12 12 26 31 32 29 27 26 24 21 18 17 14
17 17 18 18 17 15 13 12 13 12 12 12 11 13 14 14 13 10 12 11 9 10 14 17 20 22 22 23 19 11 11 13 21 22 27 26 25 24 22 23 22 17 12
15 17 18 18 17 15 14 12 13 13 12 12 11 13 15 15 15 13 14 15 13 12 13 15 20 19 21 21 19 16 14 14 15 20 26 24 23 23 24 21 21 19 12
13 15 16 16 15 15 14 12 12 12 11 10 11 13 15 15 15 16 15 16 16 16 18 19 20 19 19 22 20 18 17 17 16 17 19 24 25 25 24 24 23 20 15
10 12 13 13 13 13 12 12 11 11 10 10 12 12 16 16 16 15 18 18 17 17 19 20 19 19 19 21 21 21 19 17 16 18 20 23 22 24 23 23 22 19 16
5 7 9 10 11 12 12 11 10 11 10 9 9 12 15 16 16 17 15 16 17 19 22 25 24 21 23 24 23 22 18 17 17 19 20 22 21 22 22 24 23 21 16
8 4 4 7 8 10 10 10 10 11 9 8 7 10 15 16 15 17 18 16 16 17 20 21 21 21 21 23 23 21 19 19 19 18 20 21 22 23 24 24 26 23 22
16 13 8 2 4 7 8 9 9 11 9 9 8 9 12 15 17 18 19 21 18 18 17 17 18 20 21 22 22 22 22 24 22 20 21 22 22 23 24 26 28 26 25
13 13 12 9 5 2 7 9 9 10 10 10 10 10 13 14 17 15 21 21 21 21 20 21 21 22 25 26 26 25 25 25 24 23 24 22 22 23 26 27 29 29 28
10 9 8 8 7 6 3 6 10 10 12 13 13 14 17 17 12 9 12 19 21 23 22 23 25 26 26 26 26 25 25 27 27 26 25 24 25 26 26 28 30 31 32
10 8 6 6 6 5 5 5 6 10 12 13 15 15 17 17 16 13 11 12 14 14 22 27 27 28 28 28 27 27 26 27 29 28 27 27 28 28 28 30 31 33 34
15 13 10 8 8 8 7 6 5 6 9 13 15 18 19 18 18 17 18 20 25 23 20 17 25 30 32 33 32 30 32 29 30 28 31 31 32 32 31 31 32 33 35
15 13 11 10 9 11 10 10 9 8 6 8 12 16 18 21 22 20 18 19 23 24 27 23 21 23 27 29 31 32 29 33 31 33 34 35 35 35 34 34 33 34 34
13 13 12 11 11 11 10 12 13 13 11 10 8 9 13 17 19 20 21 20 18 20 24 24 22 22 24 26 29 32 34 35 36 36 36 37 38 40 39 38 36 34 33
14 14 14 14 13 13 12 12 12 14 15 14 13 12 10 12 15 18 19 20 19 18 16 18 21 22 21 22 26 30 32 35 38 38 38 38 39 41 42 42 37 34 33
15 15 15 14 14 15 15 13 13 14 14 15 15 14 13 14 14 14 16 21 23 23 22 22 22 24 26 27 24 26 29 31 33 35 38 38 38 40 42 43 40 35 33
14 13 13 13 13 13 13 13 13 14 15 16 16 16 15 17 18 18 17 17 18 20 22 23 24 23 24 25 26 25 28 31 31 33 35 36 37 38 41 43 42 37 35
11 10 10 11 12 13 13 14 14 14 15 16 17 18 18 16 17 19 20 21 21 20 20 21 23 25 24 25 27 27 28 29 30 32 34 34 37 38 39 41 43 41 38
11 11 10 10 11 11 12 13 14 15 16 16 17 18 19 19 20 19 20 22 23 24 24 24 23 23 23 24 25 27 27 25 27 29 30 31 34 36 38 41 42 41 39
12 13 13 13 12 12 13 13 13 14 16 17 18 19 19 20 21 22 22 22 23 24 25 26 26 26 24 22 22 24 26 25 23 23 26 29 32 35 37 39 42 43 42
14 15 16 16 15 15 15 15 15 15 16 16 17 17 19 20 22 23 24 24 25 25 25 26 26 26 26 26 23 22 23 24 24 23 23 26 30 32 34 36 41 46 45

GFSGL_850_spd_339.txt.gz
Wind_Speed
14 12 9 7 7 7 7 6 5 5 6 5 5 3 1 2 3 6 7 9 9 11 13 15 17 21 20 19 13 18 25 30 39 38 34 30 27 22 19 17 13 10 9
15 13 11 10 8 7 8 8 7 6 6 6 6 5 3 2 3 7 8 10 9 10 13 16 16 16 15 17 9 13 20 31 37 41 35 31 26 22 20 17 13 11 8
17 15 14 12 9 8 9 10 9 8 6 6 7 6 4 5 6 8 9 9 9 8 10 11 12 14 16 16 11 11 20 31 33 36 36 31 27 23 21 17 14 11 8
19 18 15 13 11 10 10 10 10 10 8 7 8 8 7 6 7 9 10 10 9 9 11 12 11 15 16 18 14 15 27 26 35 32 35 34 29 25 20 17 16 12 10
20 18 16 15 14 13 12 10 12 12 10 9 9 10 9 8 8 10 10 10 11 12 12 15 15 15 17 20 15 23 26 24 28 31 33 33 29 27 24 20 16 14 12
19 17 18 18 17 15 13 11 12 13 12 11 10 12 12 11 10 10 10 10 10 12 12 18 19 18 21 21 17 16 13 14 23 30 32 31 27 27 24 23 19 17 15
19 18 19 19 18 17 15 14 12 13 14 12 11 12 15 14 12 11 10 11 10 11 12 15 21 21 22 21 20 15 12 13 13 16 24 25 28 23 22 24 20 17 14
16 18 19 19 18 17 16 14 12 12 13 13 11 11 15 17 15 13 12 12 11 11 12 15 19 24 25 24 22 17 16 15 16 16 20 22 25 19 23 22 21 20 14
15 16 17 17 16 16 16 13 11 11 12 12 11 9 12 17 17 16 14 13 15 13 12 16 20 22 24 25 23 20 17 16 15 14 16 19 26 23 22 23 23 22 20
12 14 14 14 14 14 13 12 11 11 12 12 11 11 11 16 18 16 16 17 16 15 14 16 21 21 23 22 23 22 20 18 16 17 17 18 20 22 21 21 24 23 21
11 11 11 12 12 12 12 12 11 10 11 11 11 11 11 14 19 15 14 17 19 18 17 16 21 22 23 22 22 22 20 17 17 16 19 21 22 24 23 23 23 24 21
11 10 9 10 10 10 10 10 10 9 10 7 5 8 10 14 20 15 17 14 18 17 17 20 22 21 20 21 22 22 19 19 17 18 19 20 22 22 22 24 24 25 25
16 13 9 7 7 7 8 9 10 9 9 7 8 8 9 14 15 15 15 16 16 16 15 14 16 22 24 25 26 24 23 22 21 21 20 18 18 19 20 22 25 26 26
17 15 13 10 6 4 6 7 8 9 10 10 10 10 9 11 14 13 14 15 19 18 16 16 15 17 20 23 25 25 24 24 24 24 23 21 21 23 23 24 25 27 28
13 11 9 7 6 4 2 3 7 9 10 12 11 11 12 13 11 10 13 2 11 19 21 19 20 20 22 24 26 26 26 27 27 27 26 26 25 26 25 25 27 28 31
11 8 5 2 2 2 1 1 3 6 9 11 14 13 14 14 14 12 11 10 11 11 7 18 22 23 22 24 25 26 28 27 27 26 26 28 31 30 29 28 29 32 34
10 8 5 2 3 6 6 5 4 4 6 9 12 14 16 16 17 17 15 14 13 13 13 20 15 13 25 28 28 26 25 27 28 26 25 30 30 30 32 32 32 31 35
10 8 6 5 4 5 7 9 9 7 6 6 7 10 13 16 18 19 19 16 15 16 18 13 14 17 19 17 24 30 32 32 34 32 33 32 32 34 35 36 37 35 35
8 7 6 6 6 5 6 7 10 12 11 8 7 7 8 10 13 16 19 20 18 15 15 18 16 17 16 17 19 20 24 27 28 30 31 33 34 36 37 38 38 39 39
6 7 7 9 9 8 8 9 9 10 11 12 11 9 9 9 9 10 14 17 17 17 18 16 14 12 13 14 15 15 19 24 25 29 32 32 33 35 36 39 41 44 44
7 7 8 9 8 7 8 9 10 10 10 11 11 11 12 13 13 12 11 12 15 17 21 20 22 21 19 20 20 22 23 21 23 25 27 30 34 37 38 38 40 42 44
5 5 6 6 6 7 7 8 8 9 10 11 11 11 12 12 14 15 15 15 15 15 16 19 21 22 22 22 21 22 23 24 23 23 27 29 31 31 33 36 38 41 43
4 4 5 6 6 6 6 7 8 9 9 11 11 12 12 11 12 14 15 16 17 18 18 19 19 20 20 21 21 21 23 24 24 23 24 26 28 31 31 33 35 38 41
4 4 5 6 7 7 7 7 8 9 10 11 12 13 13 13 13 14 14 15 16 18 19 20 20 21 21 21 20 20 21 21 22 23 24 24 26 28 30 31 33 35 37
5 6 7 7 8 9 10 10 10 11 11 11 12 13 14 15 17 17 17 18 18 18 18 19 20 21 22 22 23 23 21 20 20 21 23 23 24 26 28 29 30 32 34
8 9 10 11 11 12 11 11 11 12 12 12 13 14 15 15 16 16 17 17 19 20 20 21 20 20 21 22 23 23 24 21 20 20 21 23 24 25 27 29 31 32 33

GFSGL_850_spd_342.txt.gz
Wind_Speed
20 18 16 13 11 11 11 10 9 8 8 8 7 5 3 3 7 9 10 10 9 10 12 13 15 17 18 22 25 27 30 36 42 38 35 30 26 22 20 16 13 9 7
20 19 17 15 13 11 11 11 10 9 9 8 8 7 5 4 7 12 11 11 10 11 13 12 17 19 16 15 11 23 30 36 40 42 35 30 25 21 17 16 13 10 6
23 20 19 17 14 12 12 12 11 11 10 9 9 9 6 5 9 13 12 12 10 10 13 17 14 16 15 12 12 19 31 38 37 39 35 32 27 22 20 16 12 10 8
24 23 21 17 15 13 12 13 13 12 11 10 9 10 9 7 10 14 14 13 11 12 12 13 14 15 16 15 15 20 30 39 40 40 39 34 27 23 20 18 14 12 8
25 24 21 18 18 16 15 13 14 14 13 12 11 11 11 9 9 12 14 13 13 12 14 14 13 14 16 15 12 14 26 33 37 35 32 28 29 28 24 21 17 15 13
25 23 22 22 21 19 17 15 14 15 15 14 12 12 12 13 11 12 13 12 13 14 14 15 17 16 17 17 15 11 15 24 30 32 34 31 31 29 27 23 20 18 16
25 25 24 23 22 20 19 17 16 15 15 14 13 13 13 15 14 13 12 13 13 13 14 15 20 20 21 22 18 17 17 21 17 17 22 26 23 28 25 23 23 19 14
25 25 24 23 22 21 20 19 17 15 15 15 15 14 14 17 17 15 14 13 15 14 15 13 16 22 24 26 22 22 22 24 22 20 23 23 25 24 23 26 25 22 16
23 24 23 23 21 21 20 18 16 16 15 16 15 14 14 17 18 18 16 15 15 15 15 15 17 20 25 28 27 25 20 20 20 21 20 19 24 28 27 25 25 24 21
21 20 21 21 20 18 18 17 17 16 16 16 16 14 14 16 19 18 19 18 16 18 17 16 19 21 24 27 27 28 24 22 19 19 19 18 17 23 23 23 24 24 23
19 19 19 18 18 17 17 17 16 14 14 13 13 13 13 15 19 19 18 19 19 18 19 18 17 21 24 25 27 27 23 21 19 19 20 19 19 20 21 23 22 24 23
18 17 17 17 16 16 15 15 14 14 13 13 11 9 10 15 19 21 17 17 18 20 21 16 14 20 26 25 25 26 24 22 19 21 23 23 22 23 23 23 24 25 26
17 16 15 15 14 14 14 14 14 13 13 12 9 7 8 11 14 16 14 18 16 18 20 18 16 21 26 25 25 27 26 22 21 24 25 23 21 20 21 23 25 27 27
19 17 14 12 12 12 12 13 13 12 12 11 11 11 10 10 12 16 14 15 12 15 16 17 17 16 23 25 25 26 26 26 25 25 24 23 22 21 20 23 25 27 29
19 17 14 12 10 9 9 10 11 12 12 14 13 13 12 12 11 13 12 9 8 18 18 18 18 18 18 20 24 26 26 28 28 27 27 27 27 25 26 25 26 26 30
15 12 10 8 7 6 6 6 7 9 11 12 14 15 15 13 14 14 12 11 11 9 6 11 19 18 19 20 21 22 23 27 28 29 30 32 31 30 30 29 31 31 31
11 9 7 6 5 5 5 5 5 6 7 10 12 16 17 16 16 15 15 13 13 13 13 10 9 8 6 18 22 24 20 19 25 31 33 33 30 31 32 33 34 34 34
10 7 6 5 5 5 7 7 7 7 6 6 9 12 14 17 18 18 17 15 14 14 15 15 13 10 12 13 14 19 28 29 30 28 31 31 28 30 30 33 35 37 38
8 5 3 2 3 4 5 6 8 9 8 9 8 9 8 10 14 18 21 22 20 17 15 14 15 16 15 16 17 19 18 22 29 31 30 32 32 34 34 34 35 37 40
5 2 1 2 4 6 6 7 7 7 8 9 9 9 9 9 9 10 15 17 18 18 18 19 17 16 17 16 17 15 15 16 18 21 25 27 29 30 32 33 33 36 39
3 1 0 3 4 5 5 6 7 8 8 8 9 10 11 11 11 11 11 11 13 15 16 18 18 17 17 18 18 19 20 19 22 21 19 22 25 29 30 32 34 36 37
5 3 2 1 2 3 3 3 4 6 7 8 8 9 11 11 12 12 12 13 14 14 14 14 17 21 20 20 19 20 20 20 20 20 22 22 22 24 27 30 31 34 36
6 5 4 3 2 1 2 2 3 5 7 8 9 10 10 10 12 12 13 13 14 15 16 17 18 18 17 16 16 17 19 19 19 20 22 24 25 24 24 26 29 31 34
5 4 3 1 2 3 3 4 5 6 7 8 9 10 12 12 13 13 14 15 15 16 16 17 17 18 19 20 20 18 19 18 18 19 20 22 23 24 25 25 26 29 31
5 3 2 1 2 4 5 6 7 8 9 10 11 11 12 12 13 14 15 17 17 18 18 18 18 19 19 19 19 20 23 23 20 19 19 20 21 22 24 25 25 26 27
3 1 2 3 4 5 6 8 9 10 11 12 12 13 14 14 15 15 15 16 16 16 17 17 19 20 20 20 20 20 20 19 21 21 20 22 22 22 23 25 26 26 26

GFSGL_850_spd_345.txt.gz
Wind_Speed
25 22 19 16 14 14 13 12 11 9 9 9 8 5 3 2 6 5 7 7 11 11 10 16 16 17 20 22 21 16 23 37 43 36 33 29 25 22 20 16 13 10 11
25 22 20 17 16 14 13 13 11 10 10 10 9 7 4 4 6 9 8 5 9 12 12 14 16 18 15 19 18 18 25 35 38 40 34 30 25 22 19 16 13 9 9
26 23 21 19 16 15 14 13 12 11 11 10 10 9 7 5 7 11 10 7 8 11 11 12 15 17 18 18 15 20 26 28 36 38 38 31 27 22 19 16 13 10 8
27 25 23 20 17 16 15 14 13 13 12 11 11 10 9 8 10 13 12 10 8 9 11 13 15 16 14 12 14 18 22 31 38 37 35 31 27 24 19 17 14 10 8
29 26 24 21 19 18 17 15 15 14 13 13 11 11 11 10 11 14 14 14 11 11 11 13 14 14 14 15 13 17 21 29 35 37 35 35 32 26 21 20 15 11 10
30 28 24 23 23 21 19 17 16 16 16 14 12 12 13 12 10 14 16 16 15 14 15 16 14 15 15 16 13 13 15 23 35 37 35 30 26 19 21 21 20 16 14
29 27 27 26 25 23 21 19 18 16 16 16 15 13 13 15 14 12 14 15 14 15 16 15 16 17 18 19 16 14 17 24 28 27 30 24 24 21 25 25 23 16 15
30 29 27 27 25 24 23 21 19 18 17 17 17 15 14 15 16 15 15 14 15 15 16 16 16 19 20 21 21 18 18 16 20 24 30 24 24 24 22 24 25 23 19
30 29 28 26 26 25 24 22 20 19 18 18 18 17 15 15 18 19 17 16 16 17 16 17 16 16 22 24 25 24 20 20 20 21 22 21 21 23 24 26 27 25 21
28 27 26 26 25 24 23 22 21 20 19 18 17 17 16 15 17 20 21 19 18 16 17 17 18 17 20 23 27 26 25 23 19 24 25 24 23 21 22 26 26 23 22
25 24 24 23 22 22 21 21 20 20 18 17 17 16 14 13 14 18 22 21 19 19 18 19 18 20 20 24 27 29 26 25 23 25 23 23 22 20 20 22 22 26 23
23 22 22 21 22 21 20 20 19 18 18 17 16 15 14 14 14 16 20 19 19 18 19 18 18 19 17 20 26 27 26 27 25 25 23 20 20 20 21 22 23 26 26
20 20 20 20 20 19 18 18 18 17 16 14 13 11 9 9 10 12 16 16 17 17 18 19 19 18 18 21 23 25 30 30 26 26 23 21 20 23 21 22 23 27 27
22 21 20 19 19 18 17 17 16 15 14 15 12 10 9 8 9 11 15 16 15 16 15 16 18 19 22 22 24 25 27 27 27 25 23 22 23 23 24 22 23 24 28
23 22 20 18 17 16 15 15 15 15 15 15 13 12 11 10 10 10 13 14 12 15 10 14 19 19 20 18 20 25 24 24 25 25 24 24 23 26 25 23 24 26 28
25 23 20 18 16 14 13 13 13 13 12 13 15 15 14 13 12 11 12 13 12 11 11 10 13 15 18 19 21 19 26 28 28 29 28 28 27 26 27 28 30 30 31
21 20 18 16 14 13 12 11 10 11 11 12 13 16 16 16 15 14 14 13 11 10 12 10 9 7 6 12 16 20 22 21 23 24 26 26 27 29 29 31 31 33 34
19 17 14 13 11 10 9 8 8 8 9 9 11 12 14 17 17 16 16 14 13 13 12 11 11 11 12 12 12 12 17 22 22 24 27 29 31 31 32 32 31 31 32
18 16 14 12 11 9 8 8 9 9 9 9 9 9 9 9 13 15 19 18 17 15 14 14 15 15 16 15 14 15 16 17 19 26 29 29 28 28 30 31 31 31 33
17 15 13 11 10 9 8 7 7 7 8 9 9 10 10 8 8 8 12 15 17 20 20 19 19 19 18 16 17 17 17 16 14 15 17 21 27 29 31 32 34 34 35
14 13 11 9 8 7 6 5 6 6 6 6 8 9 10 9 10 10 10 10 11 12 13 15 16 16 18 17 16 17 17 17 17 16 18 20 19 20 22 25 27 29 31
13 11 10 8 7 6 5 4 4 3 3 4 5 6 8 8 8 10 10 11 13 13 13 13 14 15 19 20 19 19 20 20 19 18 18 18 19 20 21 21 23 25 28
13 12 11 10 9 7 5 4 3 1 1 2 4 5 6 7 7 9 10 11 12 13 14 16 17 16 15 15 16 18 19 19 19 19 19 19 19 19 20 22 22 23 24
13 12 11 10 8 7 6 5 4 3 3 4 5 6 7 8 9 11 12 11 13 13 14 14 15 16 17 19 21 19 19 19 19 19 20 21 20 19 20 20 21 22 22
13 11 10 9 7 6 4 4 4 4 4 4 5 6 7 8 8 10 11 12 13 14 14 16 18 18 18 18 18 20 22 24 24 22 20 21 21 21 21 21 21 21 22
12 11 9 7 6 4 3 3 3 4 5 6 7 7 8 8 9 10 11 12 13 14 14 14 15 17 18 19 22 20 20 21 21 21 23 24 23 22 22 22 22 22 22